Terminal Aerodrome Forecast
Issued by NWS Springfield, MO

Home | Current Version | Previous Version | Text Only | Print | Product List | Glossary On
Versions: 1 2 3 4 5 6 7 8 9 10 11 12 13 14 15 16 17 18 19 20 21 22 23 24 25 26 27 28 29 30 31
000
FTUS43 KSGF 010800 AAA
TAFSGF
TAF AMD
KSGF 010817Z 0108/0206 17005KT P6SM OVC006
     FM011600 VRB05KT P6SM OVC007
     FM020300 VRB05KT P6SM OVC015=

USA.gov is the U.S. government's official web portal to all federal, state and local government web resources and services.